Location: Byszew
(52.1813°N, 19.2693°E)
Time: 23:10:20
(UTC+00:00)

Envisat - Pass Details

Date: 05 February 2022
Orbit: 764 x 765 km, 98.2° (Epoch: 22 May)

Event Time Altitude Azimuth Distance (km) Brightness Sun altitude
Rises 16:04:18 0° 214° (SW) 3,220 7.2 -4.6°
Reaches altitude 10° 16:07:28 10° 235° (SW) 2,300 7.1 -5.1°
Maximum altitude 16:10:36 16° 273° (W) 1,907 6.3 -5.5°
Drops below altitude 10° 16:13:43 10° 312° (NW) 2,311 5.9 -6.0°
Sets 16:16:57 0° 333° (NNW) 3,243 6.4 -6.5°
